sat.trackr.live / text

‹ back to catalog

STARLINK-33883

NORAD 63781 · 2025-091G

PAYLOAD ACTIVE UNKNOWN

§ Identity

Operator
Country
US
Launch date
2025-05-02
Launch site
AFETR
Launch vehicle
Mass (kg)
RCS (m²)

Purposes: comms

External: N2YO · Heavens-Above · Gunter

§ Orbital elements

Epoch: 2026-05-24T21:21:22.525056Z

Period
94.27 min
Inclination
42.9996°
Eccentricity
0.0001460
Mean motion
15.27577049 rev/d
Perigee alt
482.1 km
Apogee alt
484.1 km
Semi-major
6,861.2 km
B*
1.0797e-3
RAAN
342.3956°
Arg perigee
255.7019°
Mean anomaly
104.3671°
Rev number
6,055

§ Raw data

STARLINK-338831 63781U 25091G   26144.88984404  .00029566  00000+0  10797-2 0  99972 63781  42.9996 342.3956 0001460 255.7019 104.3671 15.27577049 60553

JSON: /api/v1/satellites/63781 · /tle

For live sub-satellite position, see the globe view (requires WebGL).

§ Visibility from observer

Set your observer location to see the next 7 days of passes ≥ 10°. The values pass through the URL so the page stays shareable.

No JS? Fill the form by hand. The geolocation button needs JavaScript.